Weather History for Somerville, NJ

Change the Weather History Date:

Monday, November 19, 2012

  Actual Average Record
Temperature  
Mean Temperature 40 °F -  
Max Temperature 51 °F 52 °F 70 °F (1953)
Min Temperature 28 °F 31 °F 13 °F (1936)
Degree Days  
Heating Degree Days 26    
Moisture  
Dew Point 33 °F    
Average Humidity 73    
Maximum Humidity 96    
Minimum Humidity 54    
Precipitation  
Precipitation 0.00 in - - ()
Sea Level Pressure  
Sea Level Pressure 30.38 in    
Wind  
Wind Speed 4 mph (NNE)    
Max Wind Speed 9 mph    
Max Gust Speed 17 mph    
Visibility 10 miles    
Events      
Averages and records for this station are not official NWS values.
T = Trace of Precipitation, MM = Missing Value Source: NWS Daily Summary

Daily Weather History Graph

Daily Weather History Graph

Search for Another Location

Airport:

Trip Planner

Search our weather history database for the weather conditions in past years. The results will help you decide how hot, cold, wet, or windy it might be!

Date:

Astronomy

Nov. 19, 2012 Rise Set
Actual Time 6:50 AM EST 4:37 PM EST
Civil Twilight 6:20 AM EST 5:07 PM EST
Nautical Twilight 5:47 AM EST 5:40 PM EST
Astronomical Twilight 5:15 AM EST 6:12 PM EST
Moon 11:51 AM EST (11/19) 11:02 PM EST (11/19)
Length of Visible Light 10h 46m
Length of Day
9h 47m
Waxing Crescent, 40% of the Moon is Illuminated
Nov 19
Waxing Crescent
Nov 20
First Quarter
Nov 28
Full
Dec 6
Last Quarter
Dec 13
New

Hourly Weather History & Observations

Time (EST) Temp. Windchill Dew Point Humidity Pressure Visibility Wind Dir Wind Speed Gust Speed Precip Events Conditions
12:53 AM 32.0 °F 28.7 °F 30.0 °F 92% 30.54 in 9.0 mi North 3.5 mph - N/A   Clear
1:53 AM 28.9 °F 25.2 °F 28.0 °F 96% 30.53 in 10.0 mi NNW 3.5 mph - N/A   Mostly Cloudy
2:53 AM 30.0 °F 26.5 °F 28.0 °F 92% 30.52 in 10.0 mi NNW 3.5 mph - N/A   Partly Cloudy
3:53 AM 30.9 °F 27.5 °F 28.9 °F 92% 30.51 in 10.0 mi North 3.5 mph - N/A   Clear
4:53 AM 28.0 °F 22.8 °F 26.1 °F 92% 30.50 in 6.0 mi NNW 4.6 mph - N/A   Clear
5:53 AM 28.0 °F 24.2 °F 27.0 °F 96% 30.49 in 7.0 mi NNW 3.5 mph - N/A   Clear
6:53 AM 28.9 °F - 27.0 °F 92% 30.49 in 9.0 mi Calm Calm - N/A   Clear
7:53 AM 30.9 °F 26.2 °F 28.9 °F 92% 30.48 in 10.0 mi North 4.6 mph - N/A   Clear
8:53 AM 37.9 °F 32.7 °F 32.0 °F 79% 30.48 in 10.0 mi NE 6.9 mph - N/A   Clear
9:53 AM 44.1 °F 39.0 °F 34.0 °F 68% 30.45 in 10.0 mi NE 9.2 mph 17.3 mph N/A   Clear
10:53 AM 46.9 °F - 35.1 °F 63% 30.44 in 10.0 mi Variable 6.9 mph - N/A   Partly Cloudy
11:11 AM 48.2 °F - 35.6 °F 62% 30.42 in 10.0 mi NE 6.9 mph - N/A   Mostly Cloudy
11:22 AM 48.2 °F - 35.6 °F 62% 30.41 in 10.0 mi ENE 8.1 mph - N/A   Scattered Clouds
11:53 AM 48.9 °F - 35.1 °F 59% 30.40 in 10.0 mi Calm Calm - N/A   Partly Cloudy
12:53 PM 50.0 °F - 36.0 °F 59% 30.38 in 10.0 mi East 8.1 mph - N/A   Clear
1:53 PM 51.1 °F - 35.1 °F 54% 30.35 in 10.0 mi ENE 8.1 mph - N/A   Clear
2:53 PM 50.0 °F - 36.0 °F 59% 30.34 in 10.0 mi Variable 5.8 mph - N/A   Clear
3:53 PM 48.9 °F - 35.1 °F 59% 30.33 in 10.0 mi NE 5.8 mph - N/A   Clear
4:53 PM 45.0 °F - 34.0 °F 65% 30.33 in 10.0 mi Calm Calm - N/A   Scattered Clouds
5:01 PM 44.6 °F - 33.8 °F 66% 30.32 in 10.0 mi Calm Calm - N/A   Mostly Cloudy
5:53 PM 46.9 °F - 34.0 °F 61% 30.32 in 10.0 mi Calm Calm - N/A   Overcast
6:20 PM 46.4 °F 44.3 °F 35.6 °F 66% 30.31 in 10.0 mi Variable 4.6 mph - N/A   Overcast
6:51 PM 46.4 °F 45.2 °F 35.6 °F 66% 30.31 in 10.0 mi North 3.5 mph - N/A   Overcast
6:53 PM 46.9 °F - 35.1 °F 63% 30.32 in 10.0 mi Calm Calm - N/A   Overcast
7:53 PM 46.0 °F 43.9 °F 36.0 °F 68% 30.30 in 10.0 mi NNW 4.6 mph - N/A   Overcast
8:51 PM 44.6 °F - 35.6 °F 71% 30.28 in 10.0 mi Calm Calm - N/A   Overcast
8:53 PM 45.0 °F - 35.1 °F 68% 30.28 in 10.0 mi Calm Calm - N/A   Overcast
9:53 PM 44.1 °F 42.5 °F 35.1 °F 71% 30.28 in 10.0 mi North 3.5 mph - N/A   Overcast
10:21 PM 42.8 °F 40.1 °F 33.8 °F 70% 30.26 in 10.0 mi North 4.6 mph - N/A   Overcast
10:53 PM 42.1 °F 40.2 °F 34.0 °F 73% 30.25 in 10.0 mi North 3.5 mph - N/A   Overcast
11:23 PM 39.2 °F - 33.8 °F 81% 30.24 in 10.0 mi Calm Calm - N/A   Scattered Clouds
11:53 PM 37.0 °F - 33.1 °F 86% 30.25 in 10.0 mi Calm Calm - N/A   Clear